KJ4YRE Weather Reports


time (UTC)temp
C
wind
direction
speed
KPH
gust
KPH
rain 1hr
cm
rain 24hr
cm
rain mn
cm
humidity
%
barometer
mb
20260502234007 12 71 0.0 1.6 0.00 0.00 0.00 70 1012.9
20260502233716 12 77 0.0 3.2 0.00 0.00 0.00 72 1012.9
20260502233217 12 77 1.6 1.6 0.00 0.00 0.00 71 1012.8
20260502232505 12 63 0.0 0.0 0.00 0.00 0.00 69 1012.7
20260502232006 12 34 0.0 1.6 0.00 0.00 0.00 69 1012.7
20260502231716 12 63 0.0 1.6 0.00 0.00 0.00 68 1012.6
20260502231217 13 77 0.0 1.6 0.00 0.00 0.00 66 1012.6
20260502230506 13 77 1.6 3.2 0.00 0.00 0.00 65 1012.5
20260502230007 13 77 0.0 0.0 0.00 0.00 0.00 66 1012.5
20260502225507 13 77 1.6 3.2 0.00 0.00 0.00 62 1012.6
20260502225006 13 85 0.0 1.6 0.00 0.00 0.00 63 1012.5
20260502224505 13 79 0.0 3.2 0.00 0.00 0.00 62 1012.6
20260502224007 13 77 3.2 4.8 0.00 0.00 0.00 60 1012.6
20260502223716 14 89 0.0 4.8 0.00 0.00 0.00 60 1012.7
20260502223007 14 73 1.6 4.8 0.00 0.00 0.00 61 1012.8
20260502222507 14 77 0.0 1.6 0.00 0.00 0.00 59 1012.7
20260502222006 14 82 0.0 1.6 0.00 0.00 0.00 58 1012.7
20260502221505 14 49 1.6 3.2 0.00 0.00 0.00 59 1012.7
20260502221005 14 76 1.6 3.2 0.00 0.00 0.00 60 1012.6
20260502220005 14 85 0.0 3.2 0.00 0.00 0.00 58 1012.6
20260502215504 14 77 0.0 1.6 0.00 0.00 0.00 59 1012.7
20260502215006 14 77 0.0 3.2 0.00 0.00 0.00 57 1012.8
20260502214505 14 77 0.0 3.2 0.00 0.00 0.00 56 1012.8
20260502214007 14 77 1.6 3.2 0.00 0.00 0.00 54 1012.8
20260502213506 14 76 3.2 8.0 0.00 0.00 0.00 57 1012.7
20260502213217 14 43 1.6 1.6 0.00 0.00 0.00 55 1012.7
20260502212504 14 76 1.6 4.8 0.00 0.00 0.00 53 1012.5
20260502212004 14 77 1.6 9.7 0.00 0.00 0.00 55 1012.6
20260502211505 14 74 4.8 11.3 0.00 0.00 0.00 54 1012.5
20260502211216 14 77 1.6 9.7 0.00 0.00 0.00 53 1012.5
20260502210507 14 74 1.6 4.8 0.00 0.00 0.00 52 1012.6
20260502210216 14 57 1.6 9.7 0.00 0.00 0.00 52 1012.5
20260502205505 14 77 3.2 8.0 0.00 0.00 0.00 50 1012.4
20260502205005 15 74 4.8 12.9 0.00 0.00 0.00 49 1012.5
20260502204505 15 75 1.6 8.0 0.00 0.00 0.00 51 1012.5
20260502204005 15 72 3.2 12.9 0.00 0.00 0.00 48 1012.5
20260502203504 15 83 1.6 8.0 0.00 0.00 0.00 49 1012.5
20260502203006 15 86 3.2 9.7 0.00 0.00 0.00 51 1012.6
20260502202715 15 75 3.2 16.1 0.00 0.00 0.00 49 1012.5
20260502202216 15 76 3.2 9.7 0.00 0.00 0.00 48 1012.5
20260502201504 15 71 1.6 11.3 0.00 0.00 0.00 50 1012.6
20260502201216 16 74 4.8 14.5 0.00 0.00 0.00 46 1012.6
20260502200507 16 77 4.8 12.9 0.00 0.00 0.00 45 1012.5
20260502200005 17 77 3.2 11.3 0.00 0.00 0.00 44 1012.6
20260502195504 17 73 3.2 8.0 0.00 0.00 0.00 49 1012.7
20260502195005 16 61 3.2 11.3 0.00 0.00 0.00 47 1012.7
20260502194505 16 78 4.8 12.9 0.00 0.00 0.00 49 1012.7
20260502194005 16 75 4.8 12.9 0.00 0.00 0.00 50 1012.8
20260502193506 16 77 6.4 16.1 0.00 0.00 0.00 48 1012.8
20260502193008 16 79 0.0 4.8 0.00 0.00 0.00 50 1012.8
20260502192506 16 76 3.2 8.0 0.00 0.00 0.00 50 1013.0
20260502192005 15 77 3.2 9.7 0.00 0.00 0.00 51 1013.0
20260502191717 15 72 3.2 9.7 0.00 0.00 0.00 51 1013.1
20260502191007 16 82 3.2 9.7 0.00 0.00 0.00 49 1013.2
20260502190506 16 75 4.8 16.1 0.00 0.00 0.00 47 1013.2
20260502190007 16 76 3.2 12.9 0.00 0.00 0.00 48 1013.2
20260502185715 17 72 3.2 9.7 0.00 0.00 0.00 50 1013.2
20260502185008 16 79 4.8 11.3 0.00 0.00 0.00 49 1013.2
20260502184507 16 83 3.2 11.3 0.00 0.00 0.00 49 1013.2
20260502184216 15 76 3.2 9.7 0.00 0.00 0.00 49 1013.4
20260502183006 15 81 3.2 9.7 0.00 0.00 0.00 52 1013.6
20260502182006 15 81 4.8 14.5 0.00 0.00 0.00 53 1013.9
20260502181505 14 70 8.0 14.5 0.00 0.00 0.00 53 1013.9
20260502181215 15 76 4.8 11.3 0.00 0.00 0.00 55 1013.9
20260502180506 14 75 3.2 8.0 0.00 0.00 0.00 57 1014.0
20260502180217 14 75 3.2 11.3 0.00 0.00 0.00 57 1014.1
20260502170507 13 68 4.8 11.3 0.00 0.00 0.00 58 1014.8
20260502164005 13 74 4.8 9.7 0.00 0.00 0.00 61 1014.8
20260502163716 13 66 3.2 11.3 0.00 0.00 0.00 62 1014.9
20260502163007 13 73 4.8 11.3 0.00 0.00 0.00 61 1014.8
20260502162714 14 72 4.8 12.9 0.00 0.00 0.00 61 1014.9
20260502162215 14 70 8.0 16.1 0.00 0.00 0.00 62 1014.9
20260502161506 13 77 3.2 12.9 0.00 0.00 0.00 63 1014.9
20260502161005 13 77 3.2 14.5 0.00 0.00 0.00 65 1015.0
20260502160507 13 79 3.2 12.9 0.00 0.00 0.00 64 1015.1
20260502151717 13 73 4.8 11.3 0.00 0.00 0.00 68 1015.2
20260502151005 13 77 1.6 4.8 0.00 0.00 0.00 69 1015.2
20260502150717 13 75 1.6 8.0 0.00 0.00 0.00 69 1015.4
20260502130507 12 77 3.2 8.0 0.00 0.00 0.00 81 1015.1
20260502123505 12 77 1.6 3.2 0.00 0.00 0.00 84 1014.8
20260502123007 11 78 1.6 4.8 0.00 0.00 0.00 84 1014.8
20260502122505 11 79 3.2 9.7 0.00 0.00 0.00 84 1014.7
20260502122005 11 77 3.2 11.3 0.00 0.00 0.00 85 1014.7
20260502121505 11 73 3.2 8.0 0.00 0.00 0.00 85 1014.6
20260502121005 11 76 3.2 9.7 0.00 0.00 0.00 86 1014.7
20260502120716 11 70 1.6 4.8 0.00 0.00 0.00 86 1014.7
20260502115504 11 79 4.8 11.3 0.00 0.00 0.00 87 1014.6
20260502115006 11 77 3.2 8.0 0.00 0.00 0.00 88 1014.7
20260502114507 11 135 1.6 4.8 0.00 0.00 0.00 89 1014.7
20260502114006 11 65 1.6 11.3 0.00 0.00 0.00 88 1014.7
20260502113508 11 78 3.2 8.0 0.00 0.00 0.00 88 1014.8
20260502113006 11 79 1.6 4.8 0.00 0.00 0.00 91 1014.6
20260502112505 11 77 1.6 3.2 0.00 0.00 0.00 93 1014.5
20260502112007 11 77 0.0 3.2 0.00 0.00 0.00 93 1014.5
20260502111505 11 75 1.6 3.2 0.00 0.00 0.00 92 1014.7
20260502111217 11 77 1.6 3.2 0.00 0.00 0.00 92 1014.6
20260502110506 10 77 0.0 1.6 0.00 0.00 0.00 93 1014.4
20260502110005 10 77 1.6 4.8 0.00 0.00 0.00 93 1014.4
20260502105505 10 71 1.6 4.8 0.00 0.00 0.00 94 1014.4
20260502105005 10 64 1.6 8.0 0.00 0.00 0.00 95 1014.2
20260502104505 10 65 3.2 4.8 0.00 0.00 0.00 95 1014.1
20260502104006 10 73 1.6 4.8 0.00 0.00 0.00 96 1014.0
20260502103506 10 68 1.6 3.2 0.00 0.00 0.00 98 1013.6
20260502103008 10 63 0.0 1.6 0.00 0.00 0.00 100 1013.3
20260502102506 10 77 1.6 1.6 0.00 0.00 0.00 100 1013.3
20260502102006 10 63 0.0 3.2 0.00 0.00 0.00 100 1013.2
20260502101505 9 73 1.6 4.8 0.00 0.00 0.00 100 1013.1
20260502101006 9 73 1.6 4.8 0.00 0.00 0.00 100 1013.1
20260502100505 9 70 1.6 3.2 0.00 0.00 0.00 100 1013.2
20260502091506 9 77 0.0 0.0 0.00 0.00 0.00 100 1012.9
20260502091006 9 77 0.0 0.0 0.00 0.00 0.00 100 1012.8
20260502090717 9 82 0.0 0.0 0.00 0.00 0.00 100 1012.9
20260502071006 10 74 1.6 3.2 0.00 0.00 0.00 99 1013.1
20260502070507 10 73 1.6 8.0 0.00 0.00 0.00 100 1012.8
20260502070007 10 77 4.8 8.0 0.00 0.00 0.00 99 1012.9
20260502065505 10 77 1.6 3.2 0.00 0.00 0.00 98 1012.7
20260502065007 10 77 0.0 1.6 0.00 0.00 0.00 98 1012.7
20260502064506 10 67 1.6 3.2 0.00 0.00 0.00 98 1012.6
20260502064005 10 217 3.2 8.0 0.00 0.00 0.00 98 1012.6
20260502063506 10 225 0.0 3.2 0.00 0.00 0.00 98 1012.6
20260502063005 10 230 3.2 4.8 0.00 0.00 0.00 98 1012.7
20260502062505 10 242 1.6 3.2 0.00 0.00 0.00 97 1012.9
20260502062006 10 206 1.6 3.2 0.00 0.00 0.00 96 1012.9
20260502061217 10 212 0.0 4.8 0.00 0.00 0.00 96 1013.2
20260502060506 10 240 1.6 4.8 0.00 0.00 0.00 95 1013.3
20260502060006 11 235 0.0 3.2 0.00 0.00 0.00 94 1013.5
20260502055507 11 252 0.0 3.2 0.00 0.00 0.00 95 1013.4
20260502055006 11 227 0.0 4.8 0.00 0.00 0.00 94 1013.5
20260502054505 11 229 1.6 4.8 0.00 0.00 0.00 93 1013.5
20260502054006 11 234 1.6 3.2 0.00 0.00 0.00 93 1013.7
20260502053505 11 218 1.6 3.2 0.00 0.00 0.00 92 1013.6
20260502053217 11 228 3.2 4.8 0.00 0.00 0.00 92 1013.7
20260502052505 11 237 3.2 4.8 0.00 0.00 0.00 91 1013.8
20260502052006 12 228 3.2 9.7 0.00 0.00 0.00 91 1013.9
20260502051506 12 228 3.2 9.7 0.00 0.00 0.00 90 1014.0
20260502051005 12 231 3.2 8.0 0.00 0.00 0.00 90 1014.0
20260502050505 12 217 1.6 4.8 0.00 0.00 0.00 90 1014.2
20260502050006 12 244 3.2 8.0 0.00 0.00 0.00 90 1014.1
20260502045505 12 181 3.2 9.7 0.00 0.00 0.00 89 1014.1
20260502045005 12 250 3.2 9.7 0.00 0.00 0.00 89 1014.1
20260502044505 12 281 6.4 14.5 0.00 0.00 0.00 90 1014.2
20260502044214 12 252 1.6 11.3 0.00 0.00 0.00 89 1014.3
20260502043715 12 248 1.6 8.0 0.00 0.00 0.00 89 1014.4
20260502043007 12 233 4.8 12.9 0.00 0.00 0.00 89 1014.4
20260502042505 12 204 4.8 14.5 0.00 0.00 0.00 89 1014.3
20260502042005 12 226 4.8 11.3 0.00 0.00 0.00 89 1014.4
20260502041715 12 242 4.8 11.3 0.00 0.00 0.00 88 1014.3
20260502041006 12 235 4.8 11.3 0.00 0.00 0.00 88 1014.3
20260502040717 12 229 4.8 16.1 0.00 0.00 0.00 88 1014.4
20260502040009 12 264 8.0 16.1 0.00 0.00 0.00 88 1014.4
20260502035506 12 229 3.2 9.7 0.00 0.00 0.00 88 1014.5
20260502035007 12 238 6.4 12.9 0.00 0.00 0.00 87 1014.5
20260502034505 12 269 4.8 16.1 0.00 0.00 0.00 88 1014.5
20260502034005 12 263 4.8 11.3 0.00 0.00 0.00 87 1014.5
20260502033504 12 240 3.2 11.3 0.00 0.00 0.00 88 1014.5
20260502033006 12 204 3.2 9.7 0.00 0.00 0.00 86 1014.4
20260502032504 12 219 6.4 12.9 0.00 0.00 0.00 86 1014.2
20260502032006 12 204 3.2 11.3 0.00 0.00 0.00 86 1014.1
20260502031717 12 228 3.2 11.3 0.00 0.00 0.00 87 1014.0
20260502031216 12 220 3.2 9.7 0.00 0.00 0.00 86 1014.0
20260502030505 12 241 1.6 4.8 0.00 0.00 0.00 86 1013.9
20260502030216 12 237 3.2 8.0 0.00 0.00 0.00 86 1013.8
20260502025505 12 31 1.6 4.8 0.00 0.00 0.00 85 1013.7
20260502025005 12 242 3.2 16.1 0.00 0.00 0.00 85 1013.8
20260502024716 12 234 1.6 11.3 0.00 0.00 0.00 85 1014.0
20260502024215 12 205 1.6 8.0 0.00 0.00 0.00 85 1014.1
20260502023714 12 233 6.4 9.7 0.00 0.00 0.00 86 1014.2
20260502023007 12 263 4.8 11.3 0.00 0.00 0.00 87 1014.1
20260502022505 11 140 3.2 4.8 0.00 0.00 0.00 87 1014.1
20260502022005 11 184 1.6 4.8 0.00 0.00 0.00 89 1014.0
20260502021506 11 169 1.6 3.2 0.00 0.00 0.00 89 1014.0
20260502021215 10 160 1.6 3.2 0.00 0.00 0.00 89 1014.0
20260502020505 10 172 1.6 1.6 0.00 0.00 0.00 91 1014.0
20260502020215 10 146 0.0 1.6 0.00 0.00 0.00 91 1014.0
20260502015505 10 189 0.0 1.6 0.00 0.00 0.00 87 1014.1
20260502015004 11 169 0.0 0.0 0.00 0.00 0.00 87 1014.0
20260502014505 11 176 0.0 1.6 0.00 0.00 0.00 87 1014.0
20260502014005 11 163 1.6 1.6 0.00 0.00 0.00 87 1014.0
20260502013506 11 188 0.0 0.0 0.00 0.00 0.00 86 1014.1
20260502013006 11 238 0.0 0.0 0.00 0.00 0.00 84 1014.0
20260502012506 11 244 0.0 0.0 0.00 0.00 0.00 84 1014.0
20260502012007 11 156 0.0 0.0 0.00 0.00 0.00 85 1013.9
20260502011505 11 136 0.0 0.0 0.00 0.00 0.00 84 1013.9
20260502011006 12 139 0.0 0.0 0.00 0.00 0.00 82 1013.8
20260502010507 12 193 0.0 4.8 0.00 0.00 0.00 82 1013.8
20260502010216 12 132 1.6 3.2 0.00 0.00 0.00 81 1013.7
20260502005717 12 161 1.6 4.8 0.00 0.00 0.00 79 1013.5
20260502005006 12 140 3.2 8.0 0.00 0.00 0.00 79 1013.3
20260502004505 12 164 1.6 4.8 0.00 0.00 0.00 78 1013.3
20260502004005 13 150 3.2 8.0 0.00 0.00 0.00 78 1013.3
20260502003717 13 128 3.2 8.0 0.00 0.00 0.00 77 1013.1
20260502003216 13 120 3.2 9.7 0.00 0.00 0.00 77 1013.1
20260502002505 13 174 3.2 8.0 0.00 0.00 0.00 76 1013.1
20260502002006 13 144 3.2 8.0 0.00 0.00 0.00 75 1013.2
20260502001506 13 165 3.2 11.3 0.00 0.00 0.00 75 1013.2
20260502001007 13 144 1.6 11.3 0.00 0.00 0.00 74 1013.1
20260502000505 14 117 3.2 11.3 0.00 0.00 0.00 73 1013.1
20260502000218 14 153 3.2 12.9 0.00 0.00 0.00 73 1013.0
20260501235717 14 171 3.2 11.3 0.00 0.00 0.00 72 1012.9
20260501235005 15 160 3.2 12.9 0.00 0.00 0.00 71 1013.0
20260501234506 15 147 6.4 11.3 0.00 0.00 0.00 72 1013.0